CZ-6A DEB, 60663

Orbit data source: Space-Track

CZ-6A DEB, 60663 is space debris in LEO originally from a launch on Tue, 06 Aug 2024 UTC launched from the Taiyaun Space Center, China (TSC). Debris objects in space refer to the collection of defunct objects orbiting the Earth. Examples of debris include non-operational satellites, rocket bodies, and fragments generated from explosions, collisions, or faulty payload assembly.

Loading next visibility...
Identifier
60663, 2024-140BQ
Orbit
LEO
Country
Flag of CNCN / PRC
Related business
Manufacturer
SAST
Mission
Spacecraft
Bus & Motor
Unknown
Mass
Unknown
Launch date (UTC)
2024-08-06 (2 years ago)
Launch vehicle
Unknown
Launch site
Taiyaun Space Center, China (TSC)
Object type
Payload
Rocket body
Debris
Shape & HBR
Unknown shape, 1.0 m
Radar Cross Section
Medium (>0.1 m² and <1 m²)

Expand to show TLE details & history
Last TLE update: 17 hours ago

TLE from 17 hours ago
0 CZ-6A DEB
1 60663U 24140BQ  26118.44505051  .00000248  00000-0  11547-3 0  9999
2 60663  89.0966 288.1093 0059097  11.5533 348.6995 14.16609715 88820
Epoch: 2026-04-28T10:40Z
TLE epoch observation values (Epoch: 2026-04-28T10:40:52.364Z)
Latitude
-0.00003°
Longitude
-88.52915°
Altitude
798.079 km
Speed
7.476 km/s
True Right ascension
19h 12m 26s
True Declination
0° 00' 00"
Sunlit
Object was in daylight at epoch
Visualization orbit readout
Latitude
Unknown
Longitude
Unknown
Altitude
Unknown
Speed
Unknown
Apparent Right ascension
Unknown
Apparent Declination
Unknown
Sunlit
N/A
Visualization observer readout
Local Sidereal Time
10:59:12
Azimuth
Unknown
Elevation
Unknown
Doppler factor
Unknown
Orbital elements
Apogee altitude
876.417 km
Perigee altitude
791.176 km
Semi-major axis
7,211.934 km
Eccentricity
0.00591
Inclination
89.0966°
RAAN
288.1093°
Arg. of periapsis
11.5533°
True anomaly
348.56583°
Mean anomaly
348.6995°
Eccentric anomaly
348.63276°
Mean motion
3.54377 °/min
Orbital period
101.59 mins
BSTAR
0.00011547
Loading maneuver chart data...
Computing Atmospheric mass density...
Loading historical data...
Loading historical data...
Loading historical data...
Loading historical data...
Loading historical data...
Loading historical data...
Loading historical data...

Documentation

Showing up to 5 results
|